Regional Weather Roundup
Issued by NWS Boston, MA

Current Version | Previous Version | Graphics & Text | Print | Product List | Glossary On
Versions: 1 2 3 4 5 6 7 8 9 10 11 12 13 14 15 16 17 18 19 20 21 22 23 24 25 26 27 28 29 30 31 32 33 34 35 36 37 38 39 40 41 42 43 44 45 46 47 48 49 50
000 ASUS41 KBOX 272310 RWRBOX REGIONAL WEATHER ROUNDUP NATIONAL WEATHER SERVICE TAUNTON MA 700 PM EDT SAT MAY 27 2017 NOTE: "FAIR" INDICATES FEW OR NO CLOUDS BELOW 12,000 FEET WITH NO SIGNIFICANT WEATHER AND/OR OBSTRUCTIONS TO VISIBILITY. MAZALL-280000- EASTERN MASSACHUSETTS CITY SKY/WX TMP DP RH WIND PRES REMARKS BOSTON CLOUDY 57 48 72 E14 29.90R BEVERLY CLOUDY 55 49 80 SE7 29.90R LAWRENCE CLOUDY 60 48 64 VRB5 29.91R BEDFORD PTSUNNY 59 46 62 SE8 29.88R BLUE HILL N/A 59 49 69 SE8 29.88R NORWOOD CLOUDY 64 52 64 SE6 29.88R MARSHFIELD CLOUDY 57 50 77 S9 29.90S PLYMOUTH CLOUDY 58 47 66 E9 29.91R TAUNTON MOSUNNY 63 52 67 SE5 29.88R NEW BEDFORD PTSUNNY 61 51 70 SW7 29.89R $$ MAZALL-280000- CAPE COD AND THE ISLANDS CITY SKY/WX TMP DP RH WIND PRES REMARKS FALMOUTH PTSUNNY 55 52 88 MISG 29.92R HYANNIS MOSUNNY 54 48 80 SE5 29.90S CHATHAM PTSUNNY 54 47 77 E5 29.92S PROVINCETOWN CLOUDY 54 46 74 E9 29.91F NANTUCKET PTCLDY 53 47 79 E8 29.91S MARTHAS VNYRD MOSUNNY 59 49 69 S7 29.91R $$ MAZALL-280000- CENTRAL AND WESTERN MASSACHUSETTS CITY SKY/WX TMP DP RH WIND PRES REMARKS WORCESTER CLOUDY 64 49 57 SW9 29.89R FITCHBURG CLOUDY 70 50 49 S6 29.87R ORANGE CLOUDY 67 54 63 S6 29.87R SPRINGFIELD CLOUDY 67 52 58 SW5 29.87R WESTFIELD CLOUDY 67 52 58 S6 29.88R NORTH ADAMS CLOUDY 67 52 58 VRB3 29.87R $$ RIZALL-280000- RHODE ISLAND CITY SKY/WX TMP DP RH WIND PRES REMARKS PROVIDENCE PTSUNNY 65 53 65 S9 29.89R NEWPORT MOSUNNY 60 53 77 S6 29.90R BLOCK ISLAND CLOUDY 60 53 77 SW9 29.91R SMITHFIELD PTSUNNY 63 52 67 VRB3 29.89R WESTERLY PTSUNNY 61 52 72 SW8 29.92R $$ CTZALL-280000- CONNECTICUT CITY SKY/WX TMP DP RH WIND PRES REMARKS BRADLEY INTL CLOUDY 67 50 54 SW6 29.88R HARTFORD CLOUDY 66 52 60 SW8 29.88R BRIDGEPORT CLOUDY 63 55 75 S10 29.89R DANBURY CLOUDY 63 55 75 S5 29.90R GROTON CLOUDY 60 52 74 SW6 29.90R NEW HAVEN CLOUDY 61 54 77 S7 29.91R CHESTER CLOUDY 61 54 77 CALM 29.91R MERIDEN CLOUDY 64 53 67 S6 29.90R WILLIMANTIC MOSUNNY 68 52 56 S3 29.89R OXFORD PTSUNNY 63 52 67 S7 29.91R $$ MEZ002-015-021-024-NHZ003-005-008-011-012-014-VTZ005-008-280000- NORTHERN NEW ENGLAND CITY SKY/WX TMP DP RH WIND PRES REMARKS PORTLAND ME MOSUNNY 53 46 77 S9 29.90R BANGOR ME PTSUNNY 62 47 57 E3 29.88R CONCORD NH CLOUDY 65 53 65 VRB7 29.86R MANCHESTER NH CLOUDY 66 50 56 SE12 29.85R NASHUA NH CLOUDY 67 53 61 SE10 29.87R PORTSMOUTH NH PTSUNNY 53 46 76 SE9 29.89R JAFFREY NH CLOUDY 67 50 54 CALM 29.88S KEENE NH CLOUDY 66 55 67 CALM 29.87R BURLINGTON VT PTSUNNY 68 48 48 W5 29.87R MT. WASHINGTON PTSUNNY 41 37 87 NW16 N/A $$ NYZ052-076-280000- EASTERN NEW YORK CITY SKY/WX TMP DP RH WIND PRES REMARKS ALBANY PTSUNNY 70 49 47 CALM 29.87R NEW YORK CITY CLOUDY 69 56 62 SE6 29.87R $$ ANZALL-280000- MARINE OBSERVATIONS STATION/POSITION TIME TEMP WIND PRES VSBY WAVE AIR SEA DIR/SP/G HT/PER (UTC) (F) (DEG/KT/KT) (MB) (MI) (FT/S) BOSTON BUOY 2250 53 54 120/ 12/ 14 1012.1R 2/ 7 BUZZARDS BAY 2200 58 220/ 7/ 7 1012.6F NANTUCKET SOUND 2250 53 1012.8S 1/ 6 MASS BAY-STELLWA 2204 52 51 130/ 10/ 12 1011.6F 2/ 9 ISLE OF SHOALS 2300 51 150/ 12/ 13 1012.3R S OF BLOCK IS 2255 57 N/A 3/ 8 $$ ......................KEY......................... SKY/WX - SKY CONDITION/PRESENT WEATHER TMP - TEMPERATURE IN FAHRENHEIT DWPT - DEWPOINT IN FAHRENHEIT RH - RELATIVE HUMIDITY IN PERCENT WIND - DIRECTION AND SPEED IN MPH PRES - MEAN SEA LEVEL PRESSURE IN INCHES OF HG WCI - WIND CHILL INDEX VSB - VISIBILITY IN MILES HX - HEAT INDEX TC - TEMPERATURE IN CELSIUS VRB - VARIABLE WIND DIRECTION N/A - NOT AVAILABLE

USA.gov is the U.S. government's official web portal to all federal, state and local government web resources and services.